Regional Weather Roundup
Issued by NWS

Home | Current Version | Previous Version | Graphics & Text | Print | Product List | Glossary On
Versions: 1 2 3 4 5 6 7 8 9 10 11 12 13 14 15 16 17 18 19 20 21 22 23 24 25 26 27 28 29 30 31 32 33 34 35 36 37 38 39 40 41 42 43 44 45 46 47 48 49 50
051
ASUS45 KABQ 121401
RWRNM
NEW MEXICO REGIONAL WEATHER ROUNDUP
NATIONAL WEATHER SERVICE ALBUQUERQUE NM
700 AM MST FRI FEB 12 2016

NOTE: "FAIR" MEANS FEW OR NO CLOUDS BELOW 12,000 FEET AGL WITH NO
       SIGNIFICANT WEATHER OR OBSTRUCTIONS TO VISION.

      THIS PRODUCT IS RELEASED AS TWO VERSIONS.  ONE VERSION NEAR
      THE TOP OF THE HOUR CONTAINING PRELIMINARY DATA FROM ALBUQUERQUE
      AND OTHER STATIONS.  A FINAL VERSION WITH ADDITIONAL DATA IS
      ISSUED ABOUT 10 MINUTES AFTER THE HOUR.

NMZ501-503-504-510>518-121500-
NORTHWEST PLATEAU/NORTHCENTRAL MOUNTAINS

CITY           SKY/WX    TMP DP  RH WIND       PRES   REMARKS
FARMINGTON     CLOUDY    25  21  85 E5        30.42R WCI  19
SANTA FE       CLOUDY    29  19  66 NE12      30.39R WCI  19
TAOS           CLOUDY    21  16  79 CALM      30.44R
ANGEL FIRE     FAIR       6   2  86 CALM      30.47S

$$
NMZ402-403-502-505>509-121500-
WESTCENTRAL MOUNTAINS/SOUTHWEST MOUNTAINS

CITY           SKY/WX    TMP DP  RH WIND       PRES   REMARKS
GALLUP         CLEAR     18  15  88 CALM      30.44S
GRANTS         CLEAR     16  12  82 NW9       30.46S WCI   5
SILVER CITY      N/A     32  12  43 N9        30.37R WCI  24

$$
NMZ407-409-411-412-121500-
SOUTHERN DESERTS

CITY           SKY/WX    TMP DP  RH WIND       PRES   REMARKS
DEMING         PTCLDY    30  13  49 NW3       30.33R
HOLLOMAN AFB   CLOUDY    30   8  40 SE7       30.30R WCI  23
ALAMOGORDO     CLOUDY    28   9  43 E6        30.32R WCI  22
T OR C         CLEAR     38  13  35 CALM      30.35R

$$
NMZ519>523-121500-
CENTRAL VALLEYS/CENTRAL HIGHLANDS

CITY           SKY/WX    TMP DP  RH WIND       PRES   REMARKS
ALBUQUERQUE    CLOUDY    34  20  56 W6        30.40R WCI  29
DOUBLE EAGLE   CLEAR     34  16  47 N5        30.41R WCI  30
MORIARTY ARPT  FAIR      26  18  72 N7        30.41R WCI  18
CLINES CORNERS CLOUDY    37  14  38 E5        30.38R WCI  33
BELEN          FAIR      28  13  52 N10       30.39S WCI  19
SOCORRO        NOT AVBL

$$
NMZ524>526-539-540-121500-
SOUTHCENTRAL MOUNTAINS

CITY           SKY/WX    TMP DP  RH WIND       PRES   REMARKS
RUIDOSO          N/A     41   1  19 NW7       30.39R

$$
NMZ527>531-121500-
NORTHEAST HIGHLANDS/NORTHEAST PLAINS

CITY           SKY/WX    TMP DP  RH WIND       PRES   REMARKS
LAS VEGAS      CLOUDY    34  14  43 NW5       30.39R WCI  30
RATON          CLOUDY    23  17  78 NE8       30.37R WCI  14
CLAYTON        CLOUDY    32  22  66 NW7       30.34R WCI  26

$$
NMZ532>537-121500-
EASTCENTRAL PLAINS

CITY           SKY/WX    TMP DP  RH WIND       PRES   REMARKS
TUCUMCARI      CLOUDY    34  23  64 N9        30.32R WCI  27
CANNON AFB     CLOUDY    35  24  63 N15       30.28R WCI  26
CLOVIS AIRPORT CLOUDY    34  21  60 N16       30.29S WCI  23

$$
NMZ028-029-538-121500-
SOUTHEAST PLAINS

CITY           SKY/WX    TMP DP  RH WIND       PRES   REMARKS
ROSWELL        CLOUDY    33  16  49 N6        30.30R WCI  28
ARTESIA        CLOUDY    32  19  59 NW9       30.30R WCI  24
CARLSBAD       CLOUDY    35  20  54 N14       30.27R WCI  26
HOBBS          CLEAR     32  25  74 N14       30.28R WCI  22


$$




USA.gov is the U.S. government's official web portal to all federal, state and local government web resources and services.